DAL1316 KSEA-KPDX

Flight info

Callsign DAL1316
Flight time 0h 34m
Altitude 13000
Route SEA1 BUWZO KRATR3
Aircraft B738/M-SDE2E3FGHIRWXY/LB1

Departure

Time 2026-05-08 04:29
Airport Seattle–Tacoma International Airport (KSEA)

Arrival

Time 2026-05-08 05:03
Airport Portland International Airport (KPDX)
Time Latitude Longitude Altitude Speed Heading
2026-05-08 03:47 47.44241 -122.30469 439 ft 0 kts 100°
2026-05-08 04:14 47.44241 -122.30472 440 ft 1 kts 100°
2026-05-08 04:14 47.44244 -122.30491 440 ft 0 kts 100°
2026-05-08 04:15 47.44245 -122.30508 440 ft 2 kts 81°
2026-05-08 04:15 47.44239 -122.30527 439 ft 2 kts 52°
2026-05-08 04:15 47.44229 -122.30541 440 ft 2 kts 24°
2026-05-08 04:15 47.44218 -122.30546 440 ft 0 kts
2026-05-08 04:16 47.44211 -122.30546 440 ft 1 kts 359°
2026-05-08 04:16 47.44210 -122.30546 440 ft 0 kts 360°
2026-05-08 04:21 47.44217 -122.30547 440 ft 4 kts 350°
2026-05-08 04:21 47.44262 -122.30564 440 ft 7 kts 345°
2026-05-08 04:21 47.44316 -122.30585 440 ft 9 kts 346°
2026-05-08 04:21 47.44392 -122.30614 440 ft 13 kts 347°
2026-05-08 04:22 47.44494 -122.30634 440 ft 16 kts 358°
2026-05-08 04:22 47.44623 -122.30635 439 ft 20 kts
2026-05-08 04:22 47.44772 -122.30631 439 ft 21 kts
2026-05-08 04:22 47.44920 -122.30627 439 ft 21 kts
2026-05-08 04:23 47.45063 -122.30622 439 ft 20 kts
2026-05-08 04:23 47.45200 -122.30623 439 ft 19 kts 360°
2026-05-08 04:23 47.45332 -122.30624 439 ft 18 kts
2026-05-08 04:23 47.45458 -122.30623 439 ft 17 kts
2026-05-08 04:24 47.45580 -122.30621 439 ft 17 kts
2026-05-08 04:24 47.45695 -122.30617 439 ft 16 kts
2026-05-08 04:24 47.45807 -122.30613 439 ft 15 kts
2026-05-08 04:24 47.45912 -122.30610 439 ft 14 kts 359°
2026-05-08 04:25 47.46014 -122.30612 439 ft 14 kts 359°
2026-05-08 04:25 47.46110 -122.30614 439 ft 13 kts 360°
2026-05-08 04:25 47.46201 -122.30615 439 ft 12 kts
2026-05-08 04:25 47.46287 -122.30615 439 ft 12 kts 360°
2026-05-08 04:26 47.46356 -122.30628 439 ft 7 kts 322°
2026-05-08 04:26 47.46360 -122.30633 439 ft 0 kts 316°
2026-05-08 04:27 47.46360 -122.30634 439 ft 1 kts 313°
2026-05-08 04:27 47.46373 -122.30711 439 ft 11 kts 271°
2026-05-08 04:27 47.46326 -122.30775 439 ft 10 kts 182°
2026-05-08 04:28 47.46183 -122.30778 439 ft 46 kts 180°
2026-05-08 04:28 47.45622 -122.30773 440 ft 112 kts 181°
2026-05-08 04:28 47.44664 -122.30783 440 ft 164 kts 180°
2026-05-08 04:28 47.43427 -122.30783 834 ft 180 kts 180°
2026-05-08 04:29 47.42273 -122.30768 1693 ft 162 kts 176°
2026-05-08 04:29 47.41093 -122.30606 1906 ft 178 kts 173°
2026-05-08 04:29 47.39820 -122.30418 2202 ft 190 kts 174°
2026-05-08 04:29 47.38464 -122.30259 2480 ft 203 kts 175°
2026-05-08 04:30 47.36999 -122.30102 2753 ft 218 kts 175°
2026-05-08 04:30 47.35424 -122.29932 2984 ft 236 kts 175°
2026-05-08 04:30 47.33758 -122.29752 3318 ft 249 kts 175°
2026-05-08 04:30 47.31972 -122.29559 3684 ft 263 kts 175°
2026-05-08 04:31 47.30147 -122.29363 4341 ft 266 kts 176°
2026-05-08 04:31 47.28294 -122.29162 5018 ft 268 kts 176°
2026-05-08 04:31 47.26438 -122.28961 5692 ft 270 kts 177°
2026-05-08 04:31 47.24559 -122.28758 6399 ft 272 kts 177°
2026-05-08 04:32 47.22692 -122.28556 7044 ft 275 kts 177°
2026-05-08 04:32 47.20766 -122.28348 7729 ft 278 kts 177°
2026-05-08 04:32 47.18827 -122.28138 8386 ft 282 kts 178°
2026-05-08 04:32 47.16893 -122.27929 9040 ft 285 kts 178°
2026-05-08 04:33 47.14900 -122.27713 9691 ft 290 kts 178°
2026-05-08 04:33 47.12875 -122.27494 10345 ft 295 kts 178°
2026-05-08 04:33 47.10784 -122.27280 10695 ft 311 kts 180°
2026-05-08 04:33 47.08581 -122.27437 11048 ft 324 kts 189°
2026-05-08 04:34 47.06309 -122.28016 11395 ft 339 kts 193°
2026-05-08 04:34 47.03950 -122.28724 11780 ft 353 kts 193°
2026-05-08 04:34 47.01548 -122.29412 12326 ft 360 kts 193°
2026-05-08 04:34 46.99054 -122.30064 12852 ft 366 kts 192°
2026-05-08 04:35 46.96540 -122.30677 12992 ft 370 kts 191°
2026-05-08 04:35 46.93985 -122.31076 12991 ft 368 kts 185°
2026-05-08 04:35 46.91431 -122.31183 12988 ft 369 kts 182°
2026-05-08 04:35 46.88867 -122.31155 12978 ft 370 kts 181°
2026-05-08 04:36 46.86300 -122.31087 12978 ft 369 kts 181°
2026-05-08 04:36 46.83769 -122.31025 12999 ft 369 kts 181°
2026-05-08 04:36 46.81207 -122.30984 13000 ft 369 kts 182°
2026-05-08 04:36 46.78642 -122.30963 12998 ft 369 kts 182°
2026-05-08 04:37 46.76078 -122.30956 12999 ft 369 kts 182°
2026-05-08 04:37 46.73501 -122.30956 12998 ft 369 kts 182°
2026-05-08 04:37 46.70938 -122.30957 12999 ft 369 kts 182°
2026-05-08 04:37 46.68383 -122.30959 12999 ft 369 kts 182°
2026-05-08 04:38 46.65801 -122.30962 12992 ft 369 kts 182°
2026-05-08 04:38 46.63242 -122.30964 12990 ft 370 kts 182°
2026-05-08 04:38 46.60646 -122.30965 12996 ft 370 kts 182°
2026-05-08 04:38 46.58102 -122.30965 12994 ft 371 kts 182°
2026-05-08 04:39 46.55499 -122.30965 12992 ft 369 kts 182°
2026-05-08 04:39 46.52925 -122.30964 12990 ft 370 kts 182°
2026-05-08 04:39 46.50352 -122.30964 12992 ft 370 kts 182°
2026-05-08 04:39 46.47805 -122.30963 12995 ft 370 kts 182°
2026-05-08 04:40 46.45209 -122.30964 12992 ft 370 kts 182°
2026-05-08 04:40 46.42637 -122.30964 12992 ft 370 kts 182°
2026-05-08 04:40 46.40076 -122.30964 12991 ft 370 kts 182°
2026-05-08 04:40 46.37488 -122.30963 12993 ft 370 kts 182°
2026-05-08 04:41 46.34924 -122.30964 12993 ft 370 kts 182°
2026-05-08 04:41 46.32358 -122.30964 12993 ft 370 kts 182°
2026-05-08 04:41 46.29761 -122.30963 12993 ft 371 kts 182°
2026-05-08 04:41 46.27182 -122.30986 12993 ft 371 kts 185°
2026-05-08 04:42 46.24630 -122.31422 12995 ft 368 kts 195°
2026-05-08 04:42 46.22207 -122.32468 12997 ft 366 kts 202°
2026-05-08 04:42 46.19842 -122.33812 12995 ft 366 kts 205°
2026-05-08 04:42 46.17490 -122.35249 12993 ft 366 kts 206°
2026-05-08 04:43 46.15150 -122.36676 12989 ft 364 kts 205°
2026-05-08 04:43 46.12880 -122.38023 12987 ft 347 kts 205°
2026-05-08 04:43 46.10699 -122.39279 12988 ft 329 kts 205°
2026-05-08 04:43 46.08611 -122.40456 12992 ft 315 kts 204°
2026-05-08 04:44 46.06548 -122.41593 12991 ft 316 kts 204°
2026-05-08 04:44 46.04492 -122.42709 12990 ft 319 kts 204°
2026-05-08 04:44 46.02407 -122.43831 12983 ft 318 kts 204°
2026-05-08 04:44 46.00334 -122.44943 12911 ft 320 kts 204°
2026-05-08 04:45 45.98255 -122.46060 12326 ft 326 kts 204°
2026-05-08 04:45 45.96106 -122.47216 11662 ft 331 kts 204°
2026-05-08 04:45 45.93922 -122.48286 11016 ft 336 kts 198°
2026-05-08 04:45 45.91608 -122.48735 10365 ft 343 kts 181°
2026-05-08 04:46 45.89264 -122.48377 9700 ft 349 kts 172°
2026-05-08 04:46 45.86949 -122.47691 9501 ft 336 kts 170°
2026-05-08 04:46 45.84695 -122.46957 9331 ft 322 kts 170°
2026-05-08 04:46 45.82541 -122.46290 9208 ft 308 kts 171°
2026-05-08 04:47 45.80488 -122.45709 9099 ft 295 kts 172°
2026-05-08 04:47 45.78533 -122.45198 9014 ft 283 kts 173°
2026-05-08 04:47 45.76635 -122.44724 8930 ft 271 kts 173°
2026-05-08 04:47 45.74801 -122.44273 8843 ft 259 kts 173°
2026-05-08 04:48 45.73063 -122.43846 8725 ft 250 kts 174°
2026-05-08 04:48 45.71371 -122.43430 8498 ft 246 kts 174°
2026-05-08 04:48 45.69688 -122.43016 8213 ft 245 kts 174°
2026-05-08 04:48 45.67999 -122.42600 7939 ft 243 kts 173°
2026-05-08 04:49 45.66330 -122.42185 7639 ft 243 kts 174°
2026-05-08 04:49 45.64667 -122.41775 7364 ft 241 kts 174°
2026-05-08 04:49 45.63039 -122.41373 7089 ft 239 kts 174°
2026-05-08 04:49 45.61389 -122.40964 6821 ft 237 kts 174°
2026-05-08 04:50 45.59793 -122.40515 6534 ft 238 kts 165°
2026-05-08 04:50 45.58414 -122.39181 6194 ft 245 kts 127°
2026-05-08 04:50 45.57790 -122.36939 6040 ft 242 kts 104°
2026-05-08 04:50 45.57331 -122.34626 6047 ft 246 kts 108°
2026-05-08 04:51 45.56886 -122.32265 6039 ft 245 kts 105°
2026-05-08 04:51 45.56484 -122.29918 6039 ft 244 kts 104°
2026-05-08 04:51 45.56085 -122.27566 6040 ft 246 kts 104°
2026-05-08 04:51 45.55681 -122.25200 6038 ft 245 kts 104°
2026-05-08 04:52 45.55273 -122.22823 6039 ft 245 kts 104°
2026-05-08 04:52 45.54872 -122.20479 6080 ft 244 kts 104°
2026-05-08 04:52 45.54464 -122.18110 6280 ft 248 kts 104°
2026-05-08 04:52 45.54053 -122.15714 6453 ft 248 kts 104°
2026-05-08 04:53 45.53647 -122.13326 6640 ft 250 kts 104°
2026-05-08 04:53 45.53233 -122.10899 6692 ft 252 kts 104°
2026-05-08 04:53 45.52820 -122.08488 6693 ft 250 kts 104°
2026-05-08 04:53 45.52409 -122.06082 6696 ft 250 kts 104°
2026-05-08 04:54 45.51998 -122.03675 6692 ft 250 kts 104°
2026-05-08 04:54 45.51578 -122.01240 6687 ft 251 kts 106°
2026-05-08 04:54 45.50818 -121.99068 6676 ft 249 kts 137°
2026-05-08 04:54 45.49337 -121.97890 6688 ft 241 kts 176°
2026-05-08 04:55 45.47760 -121.98221 6691 ft 229 kts 214°
2026-05-08 04:55 45.46710 -121.99827 6699 ft 222 kts 248°
2026-05-08 04:55 45.46255 -122.01907 6708 ft 221 kts 260°
2026-05-08 04:55 45.46066 -122.04076 6698 ft 221 kts 269°
2026-05-08 04:56 45.46137 -122.06261 6709 ft 221 kts 277°
2026-05-08 04:56 45.46409 -122.08409 6706 ft 222 kts 284°
2026-05-08 04:56 45.46944 -122.10473 6688 ft 222 kts 299°
2026-05-08 04:56 45.47904 -122.12209 6497 ft 225 kts 306°
2026-05-08 04:57 45.48528 -122.14205 6196 ft 220 kts 271°
2026-05-08 04:57 45.48263 -122.16323 6089 ft 216 kts 256°
2026-05-08 04:57 45.48012 -122.18449 6089 ft 220 kts 267°
2026-05-08 04:57 45.47939 -122.20644 5805 ft 226 kts 267°
2026-05-08 04:58 45.47825 -122.22864 5485 ft 226 kts 265°
2026-05-08 04:58 45.47656 -122.25104 5165 ft 227 kts 263°
2026-05-08 04:58 45.47468 -122.27315 4855 ft 227 kts 263°
2026-05-08 04:58 45.47323 -122.29551 4528 ft 228 kts 271°
2026-05-08 04:59 45.47609 -122.31741 4217 ft 227 kts 292°
2026-05-08 04:59 45.48311 -122.33756 3920 ft 225 kts 300°
2026-05-08 04:59 45.49092 -122.35654 3653 ft 223 kts 301°
2026-05-08 04:59 45.49859 -122.37556 3376 ft 218 kts 300°
2026-05-08 05:00 45.50595 -122.39427 3037 ft 217 kts 300°
2026-05-08 05:00 45.51322 -122.41279 2736 ft 213 kts 300°
2026-05-08 05:00 45.52040 -122.43100 2452 ft 208 kts 300°
2026-05-08 05:00 45.52745 -122.44888 2166 ft 205 kts 300°
2026-05-08 05:01 45.53487 -122.46538 1831 ft 194 kts 311°
2026-05-08 05:01 45.54434 -122.47856 1394 ft 184 kts 320°
2026-05-08 05:01 45.55338 -122.48998 1101 ft 168 kts 314°
2026-05-08 05:01 45.55968 -122.50337 738 ft 159 kts 293°
2026-05-08 05:02 45.56374 -122.51736 586 ft 150 kts 297°
2026-05-08 05:02 45.56883 -122.53018 429 ft 147 kts 302°
2026-05-08 05:02 45.57405 -122.54242 267 ft 144 kts 301°
2026-05-08 05:02 45.57882 -122.55479 182 ft 141 kts 299°
2026-05-08 05:03 45.58378 -122.56736 48 ft 145 kts 300°
2026-05-08 05:03 45.58804 -122.57832 27 ft 97 kts 300°
2026-05-08 05:03 45.59008 -122.58385 27 ft 45 kts 284°
2026-05-08 05:03 45.59027 -122.58656 27 ft 0 kts 269°
2026-05-08 05:05 45.59027 -122.58658 27 ft 1 kts 269°
2026-05-08 05:05 45.59026 -122.58780 27 ft 21 kts 270°
2026-05-08 05:05 45.59043 -122.58977 27 ft 18 kts 295°
2026-05-08 05:05 45.59055 -122.59012 27 ft 0 kts 296°
2026-05-08 05:08 45.59076 -122.59074 27 ft 12 kts 297°
2026-05-08 05:08 45.59117 -122.59190 27 ft 12 kts 297°
2026-05-08 05:08 45.59157 -122.59302 27 ft 12 kts 297°
2026-05-08 05:08 45.59195 -122.59406 27 ft 11 kts 298°
2026-05-08 05:09 45.59228 -122.59498 28 ft 8 kts 296°
2026-05-08 05:09 45.59244 -122.59570 28 ft 7 kts 271°
2026-05-08 05:09 45.59233 -122.59624 28 ft 4 kts 225°
2026-05-08 05:09 45.59220 -122.59635 28 ft 0 kts 200°
2026-05-08 05:10 45.59213 -122.59639 28 ft 0 kts 201°